Nome, AK

12:57 PM AKST on February 20, 2018 (GMT -0900)
Nome

Weather History for PAOM - February, 2014

Change the Weather History Date:

Tuesday, February 18, 2014

  Actual Average Record
Temperature  
Mean Temperature 3 °F 8 °F  
Max Temperature 12 °F 16 °F 39 °F (1934)
Min Temperature -7 °F 0 °F -36 °F (1984)
Degree Days  
Heating Degree Days 62 57  
Month to date heating degree days 985 1048  
Since 1 July heating degree days 7696 8716  
Cooling Degree Days 0 0  
Month to date cooling degree days 0 0  
Year to date cooling degree days 0 0  
Moisture  
Dew Point -10 °F    
Average Humidity 0    
Maximum Humidity 0    
Minimum Humidity 0    
Precipitation  
Precipitation 0.00 in 0.04 in 0.49 in (1944)
Month to date precipitation 0.05 0.61  
Year to date precipitation 1.62 1.55  
Snow  
Snow 0.00 in 0.40 in 8.20 in (2009)
Month to date snowfall 2.1 7.7  
Since 1 July snowfall 47.3 52.2  
Snow Depth 5.00 in    
Sea Level Pressure  
Sea Level Pressure 29.68 in    
Wind  
Wind Speed 5 mph (North)    
Max Wind Speed 13 mph    
Max Gust Speed 16 mph    
Visibility 10 miles    
Events      
T = Trace of Precipitation, MM = Missing Value Source: NWS Daily Summary

Daily Weather History Graph

Daily Weather History Graph

Search for Another Location

Airport or City:

Trip Planner

Search our weather history database for the weather conditions in past years. The results will help you decide how hot, cold, wet, or windy it might be!

Date:

Astronomy

Feb. 18, 2014 Rise Set
Actual Time 9:47 AM AKST 6:44 PM AKST
Civil Twilight 8:56 AM AKST 7:36 PM AKST
Nautical Twilight 8:00 AM AKST 8:32 PM AKST
Astronomical Twilight 7:04 AM AKST 9:28 PM AKST
Moon No Moon Rise 9:55 AM AKST (2/18)
Length of Visible Light 10h 39m
Length of Day
8h 57m
Waning Gibbous, 86% of the Moon is Illuminated
Feb 18
Waning Gibbous
Feb 22
Last Quarter
Feb 28
New
Mar 8
First Quarter
Mar 16
Full

Hourly Weather History & Observations

Time (AKST) Temp. Windchill Dew Point Humidity Pressure Visibility Wind Dir Wind Speed Gust Speed Precip Events Conditions
12:53 AM -5.1 °F - -11.0 °F 76% 29.59 in 10.0 mi Calm Calm - N/A   Partly Cloudy
1:53 AM -4.0 °F -16.3 °F -11.9 °F 69% 29.61 in 10.0 mi North 5.8 mph - N/A   Clear
2:53 AM -4.0 °F -16.3 °F -11.9 °F 69% 29.63 in 10.0 mi North 5.8 mph - N/A   Clear
3:53 AM -2.9 °F -16.5 °F -11.9 °F 65% 29.65 in 10.0 mi NNE 6.9 mph - N/A   Clear
4:53 AM -2.9 °F -17.7 °F -11.9 °F 65% 29.66 in 10.0 mi North 8.1 mph - N/A   Clear
5:53 AM -2.0 °F -16.6 °F -11.0 °F 66% 29.67 in 10.0 mi NNW 8.1 mph - N/A   Clear
6:53 AM -2.0 °F -16.6 °F -11.0 °F 66% 29.68 in 10.0 mi NNW 8.1 mph - N/A   Clear
7:53 AM -0.9 °F -8.9 °F -11.0 °F 62% 29.67 in 10.0 mi Variable 3.5 mph - N/A   Clear
8:53 AM -6.0 °F -16.9 °F -13.0 °F 72% 29.68 in 10.0 mi North 4.6 mph - N/A   Clear
9:53 AM -5.1 °F - -11.9 °F 72% 29.70 in 10.0 mi Calm Calm - N/A   Clear
10:53 AM 3.9 °F -9.4 °F -9.0 °F 55% 29.70 in 10.0 mi NNW 8.1 mph - N/A   Clear
11:53 AM 7.0 °F -6.6 °F -7.1 °F 53% 29.70 in 10.0 mi NNW 9.2 mph - N/A   Clear
12:53 PM 9.0 °F -0.9 °F -7.1 °F 48% 29.70 in 10.0 mi NW 5.8 mph - N/A   Clear
1:53 PM 10.0 °F -3.7 °F -6.0 °F 48% 29.70 in 10.0 mi NNW 10.4 mph - N/A   Clear
2:53 PM 10.0 °F -1.9 °F -2.9 °F 56% 29.70 in 10.0 mi WNW 8.1 mph - N/A   Clear
3:53 PM 10.0 °F -0.9 °F -2.0 °F 58% 29.70 in 10.0 mi East 6.9 mph - N/A   Partly Cloudy
4:53 PM 10.0 °F - -5.1 °F 51% 29.70 in 10.0 mi Calm Calm - N/A   Partly Cloudy
5:53 PM 8.1 °F - -6.0 °F 53% 29.70 in 10.0 mi Calm Calm - N/A   Partly Cloudy
6:53 PM 3.0 °F -8.0 °F -8.0 °F 60% 29.70 in 10.0 mi East 5.8 mph - N/A   Partly Cloudy
7:53 PM -0.0 °F -7.9 °F -9.9 °F 63% 29.71 in 10.0 mi North 3.5 mph - N/A   Partly Cloudy
8:53 PM 1.9 °F -11.8 °F -13.0 °F 50% 29.71 in 10.0 mi NW 8.1 mph - N/A   Clear
9:53 PM 1.0 °F -14.0 °F -14.1 °F 49% 29.71 in 10.0 mi NNW 9.2 mph - N/A   Clear
10:53 PM -0.9 °F - -15.0 °F 52% 29.72 in 10.0 mi Calm Calm - N/A   Clear
11:53 PM -2.9 °F - -15.0 °F 56% 29.72 in 10.0 mi Calm Calm - N/A   Clear